ATLAS 5 CENTAUR DEB, 57588

Orbit data source: Space-Track

ATLAS 5 CENTAUR DEB, 57588 is space debris in HEO originally from a launch on Wed, 17 Oct 2018 UTC launched from the Air Force Eastern Test Range (AFETR). Debris objects in space refer to the collection of defunct objects orbiting the Earth. Examples of debris include non-operational satellites, rocket bodies, and fragments generated from explosions, collisions, or faulty payload assembly.

Loading next visibility...
Identifier
57588, 2018-079HP
Orbit
HEO
Country
Flag of USUS
Related business
Flag of USUnited Launch Alliance/Lockheed Martin (US)
Manufacturer
ULA Decatur
Mission
Spacecraft
Bus & Motor
Unknown
Mass
Unknown
Launch date (UTC)
2018-10-17 (8 years ago)
Launch vehicle
Unknown
Launch site
Air Force Eastern Test Range (AFETR)
Object type
Payload
Rocket body
Debris
Shape & HBR
Unknown shape, 1.1 m
Radar Cross Section
RCS unknown

Expand to show TLE details & history
Last TLE update: 2 months ago

TLE from 2 months ago
0 ATLAS 5 CENTAUR DEB
1 57588U 18079HP  26208.13885941 -.00000098  00000-0  00000-0 0  9993
2 57588  13.2789  20.7540 4807103   3.1013 359.0205  1.88908979 22663
Epoch: 2026-07-27T03:19Z
TLE epoch observation values (Epoch: 2026-07-27T03:19:57.453Z)
Latitude
0.00013°
Longitude
25.96347°
Altitude
8,015.443 km
Speed
6.4 km/s
True Right ascension
01h 23m 07s
True Declination
0° 00' 00"
Sunlit
Object was in daylight at epoch
Visualization orbit readout
Latitude
Unknown
Longitude
Unknown
Altitude
Unknown
Speed
Unknown
Apparent Right ascension
Unknown
Apparent Declination
Unknown
Sunlit
N/A
Visualization observer readout
Local Sidereal Time
06:02:47
Azimuth
Unknown
Elevation
Unknown
Doppler factor
Unknown
Orbital elements
Apogee altitude
34,554.651 km
Perigee altitude
7,977.119 km
Semi-major axis
27,644.022 km
Eccentricity
0.48071
Inclination
13.2789°
RAAN
20.754°
Arg. of periapsis
3.1013°
True anomaly
356.81595°
Mean anomaly
359.0205°
Eccentric anomaly
358.11408°
Mean motion
0.47222 °/min
Orbital period
762.36 mins
BSTAR
0
Loading maneuver chart data...
Computing Atmospheric mass density...

Documentation

Showing up to 5 results
|